Location: El Mouella
(16.4949°N, 9.1594°W)
Time: 14:09:02
(UTC+00:00)

Lacrosse 5 - Pass Details

Date: 02 June 2020
Orbit: 714 x 723 km, 57.0° (Epoch: 01 July)

Event Time Altitude Azimuth Distance (km) Brightness Sun altitude
Rises 22:06:25 0° 332° (NNW) 3,106 6.0 -36.8°
Reaches altitude 10° 22:08:49 10° 335° (NNW) 2,187 5.0 -37.2°
Enters shadow 22:10:20 20° 338° (NNW) 1,620 4.2 -37.5°
